Regional Weather Roundup
Issued by NWS Sioux Falls, SD

Home | Current Version | Previous Version | Graphics & Text | Print | Product List | Glossary On
Versions: 1 2 3 4 5 6 7 8 9 10 11 12 13 14 15 16 17 18 19 20 21 22 23 24 25 26 27 28 29 30 31 32 33 34 35 36 37 38 39 40 41 42 43 44 45 46 47 48 49 50
000
ASUS43 KFSD 131710
RWRFSD

WEATHER ROUNDUP FOR SE SOUTH DAKOTA/SW MINNESOTA/NW IOWA
NATIONAL WEATHER SERVICE SIOUX FALLS SD
1200 PM CDT SUN JUL 13 2014

NOTE: "FAIR" INDICATES FEW OR NO CLOUDS BELOW 12,000 FEET WITH NO
SIGNIFICANT WEATHER AND OR OBSTRUCTIONS TO VISIBILITY.


SDZ038>040-050-052>070-131800-
SOUTHEAST SOUTH DAKOTA

CITY           SKY/WX    TMP DP  RH WIND       PRES   REMARKS
CHAMBERLAIN    MOSUNNY   81  56  41 NW14      30.07F
HURON          SUNNY     78  56  46 NW8       30.05F
MADISON        FAIR      73  57  56 NW9       30.06F
MITCHELL       SUNNY     79  61  53 VRB6      30.06F
SIOUX FALLS    MOSUNNY   79  62  56 NW8       30.04F
WINNER         FAIR      85  52  32 W12G18    30.10F
YANKTON        MOSUNNY   79  64  61 W6        30.06S
$$

MNZ071-072-080-081-089-090-097-098-131800-
SOUTHWEST MINNESOTA

CITY           SKY/WX    TMP DP  RH WIND       PRES   REMARKS
FAIRMONT       SUNNY     79  55  44 W9        30.02S
JACKSON        SUNNY     75  52  43 NW10      30.04F
LUVERNE        SUNNY     77  59  53 NW7       30.05F
MARSHALL       NOT AVBL
MONTEVIDEO     SUNNY     75  55  50 NW5       30.01S
PIPESTONE      SUNNY     75  54  46 NW10G20   30.05F
REDWOOD FALLS  SUNNY     74  52  46 N8        30.00F
TRACY          SUNNY     76  58  53 NW7       30.02F
WINDOM         SUNNY     77  52  41 NW12G17   30.03F
WORTHINGTON    SUNNY     75  55  50 W10       30.06S
$$

IAZ001>003-012>014-020>022-031-032-NEZ013-014-SDZ071-131800-
NORTHWEST IOWA

CITY           SKY/WX    TMP DP  RH WIND       PRES   REMARKS
CHEROKEE       MOSUNNY   79  61  53 W6        30.04S
DENISON        MOSUNNY   81  70  69 W7        30.03S
ESTHERVILLE    SUNNY     76  58  53 NW9       30.03S
LE MARS        MOSUNNY   79  66  65 VRB7      30.05S
ORANGE CITY    SUNNY     79  64  61 NW6       30.05F
SHELDON        SUNNY     79  66  65 N8        30.04S
SIOUX CITY     SUNNY     81  67  62 NW7       30.04F
SPENCER        SUNNY     79  65  62 W8        30.04S
STORM LAKE     MOSUNNY   77  72  83 NW9       30.05S
$$

ABBREVIATIONS USED IN REMARKS
   TC - TEMPERATURE IN CELSIUS
  WCI - WIND CHILL INDEX
   HX - HEAT INDEX
  VSB - VISIBILITY



USA.gov is the U.S. government's official web portal to all federal, state and local government web resources and services.